| time (UTC) | temp F | wind direction | speed knots | gust knots | rain 1hr in | rain 24hr in | rain mn in | humidity % | barometer mb |
| 20260509135029 | 59 | 139 | 1.7 | 6.1 | 0.00 | 0.02 | 0.02 | 78 | 1013.5 |
| 20260509133525 | 56 | 120 | 0.0 | 3.5 | 0.00 | 0.02 | 0.02 | 85 | 1013.6 |
| 20260509132025 | 55 | 127 | 1.7 | 2.6 | 0.00 | 0.02 | 0.02 | 91 | 1014.1 |
| 20260509130525 | 54 | 133 | 2.6 | 2.6 | 0.00 | 0.02 | 0.02 | 93 | 1014.1 |
| 20260509125021 | 54 | 66 | 0.0 | 1.7 | 0.00 | 0.02 | 0.02 | 95 | 1013.8 |
| 20260509123519 | 52 | 85 | 1.7 | 5.2 | 0.00 | 0.02 | 0.02 | 96 | 1013.9 |
| 20260509122015 | 52 | 127 | 2.6 | 3.5 | 0.00 | 0.02 | 0.02 | 97 | 1013.9 |
| 20260509120513 | 51 | 36 | 1.7 | 4.3 | 0.00 | 0.02 | 0.02 | 98 | 1014.1 |
| 20260509115011 | 51 | 11 | 2.6 | 4.3 | 0.00 | 0.02 | 0.02 | 98 | 1013.5 |
| 20260509113512 | 51 | 35 | 0.9 | 2.6 | 0.02 | 0.02 | 0.02 | 98 | 1013.9 |
| 20260509112008 | 50 | 69 | 0.9 | 2.6 | 0.02 | 0.02 | 0.02 | 98 | 1014.3 |
| 20260509110504 | 49 | 57 | 0.9 | 1.7 | 0.00 | 0.01 | 0.01 | 97 | 1014.4 |
| 20260509105003 | 49 | 73 | 0.0 | 1.7 | 0.02 | 0.01 | 0.01 | 96 | 1014.3 |
| 20260509103500 | 49 | 18 | 0.0 | 1.7 | 0.00 | 0.00 | 0.00 | 96 | 1014.1 |
| 20260509101957 | 49 | 97 | 0.9 | 1.7 | 0.00 | 0.00 | 0.00 | 95 | 1014.0 |
| 20260509100454 | 49 | 159 | 0.0 | 1.7 | 0.00 | 0.00 | 0.00 | 94 | 1014.0 |
| 20260509094950 | 49 | 38 | 0.0 | 2.6 | 0.00 | 0.00 | 0.00 | 92 | 1014.0 |
| 20260509093447 | 48 | 195 | 0.0 | 2.6 | 0.00 | 0.00 | 0.00 | 95 | 1013.6 |
| 20260509091942 | 48 | 14 | 0.9 | 1.7 | 0.00 | 0.00 | 0.00 | 96 | 1013.4 |
| 20260509090438 | 48 | 74 | 1.7 | 2.6 | 0.00 | 0.00 | 0.00 | 96 | 1013.0 |
| 20260509084934 | 47 | 40 | 0.9 | 1.7 | 0.00 | 0.00 | 0.00 | 96 | 1012.9 |
| 20260509083432 | 47 | 30 | 1.7 | 1.7 | 0.00 | 0.00 | 0.00 | 95 | 1012.8 |
| 20260509081929 | 47 | 90 | 0.9 | 2.6 | 0.00 | 0.00 | 0.00 | 95 | 1013.2 |
| 20260509080427 | 46 | 74 | 0.0 | 1.7 | 0.00 | 0.00 | 0.00 | 94 | 1013.1 |
| 20260509074925 | 46 | 49 | 0.0 | 1.7 | 0.00 | 0.00 | 0.00 | 94 | 1013.1 |
| 20260509073421 | 47 | 28 | 1.7 | 2.6 | 0.00 | 0.00 | 0.00 | 93 | 1013.2 |
| 20260509071917 | 47 | 15 | 2.6 | 2.6 | 0.00 | 0.00 | 0.00 | 92 | 1013.6 |
| 20260509070413 | 47 | 121 | 0.0 | 1.7 | 0.00 | 0.00 | 0.00 | 91 | 1013.6 |
| 20260509064913 | 48 | 37 | 1.7 | 2.6 | 0.00 | 0.00 | 0.00 | 89 | 1013.7 |
| 20260509063409 | 49 | 220 | 0.9 | 2.6 | 0.00 | 0.00 | 0.00 | 89 | 1013.4 |
| 20260509061907 | 49 | 180 | 0.0 | 2.6 | 0.00 | 0.00 | 0.00 | 90 | 1013.7 |
| 20260509060404 | 49 | 169 | 0.0 | 0.9 | 0.00 | 0.00 | 0.00 | 88 | 1013.4 |
| 20260509054904 | 48 | 352 | 0.0 | 1.7 | 0.00 | 0.00 | 0.00 | 87 | 1013.4 |
| 20260509053401 | 48 | 349 | 0.0 | 1.7 | 0.00 | 0.00 | 0.00 | 87 | 1013.3 |
| 20260509051900 | 48 | 342 | 1.7 | 2.6 | 0.00 | 0.00 | 0.00 | 87 | 1013.4 |
| 20260509050357 | 48 | 352 | 0.0 | 1.7 | 0.00 | 0.00 | 0.00 | 86 | 1013.5 |
| 20260509044854 | 48 | 355 | 0.0 | 1.7 | 0.00 | 0.00 | 0.00 | 83 | 1013.2 |
| 20260509043350 | 48 | 187 | 0.9 | 1.7 | 0.00 | 0.00 | 0.00 | 79 | 1013.5 |
| 20260509041845 | 47 | 8 | 0.0 | 0.9 | 0.00 | 0.00 | 0.00 | 78 | 1013.2 |
| 20260509040344 | 48 | 352 | 0.0 | 1.7 | 0.00 | 0.00 | 0.00 | 75 | 1013.1 |
| 20260509034840 | 48 | 180 | 0.0 | 1.7 | 0.00 | 0.00 | 0.00 | 72 | 1013.0 |
| 20260509033338 | 49 | 172 | 0.0 | 1.7 | 0.00 | 0.00 | 0.00 | 69 | 1013.0 |
| 20260509031835 | 49 | 180 | 1.7 | 1.7 | 0.00 | 0.00 | 0.00 | 66 | 1013.1 |
| 20260509030333 | 49 | 194 | 0.9 | 0.9 | 0.00 | 0.00 | 0.00 | 63 | 1013.1 |
| 20260509024833 | 48 | 0 | 0.9 | 1.7 | 0.00 | 0.00 | 0.00 | 65 | 1013.0 |
| 20260509023330 | 49 | 10 | 0.0 | 1.7 | 0.00 | 0.00 | 0.00 | 63 | 1012.8 |
| 20260509021826 | 50 | 240 | 0.0 | 1.7 | 0.00 | 0.00 | 0.00 | 61 | 1012.8 |
| 20260509020325 | 50 | 8 | 0.0 | 1.7 | 0.00 | 0.00 | 0.00 | 60 | 1012.5 |
| 20260509014822 | 51 | 8 | 0.0 | 3.5 | 0.00 | 0.00 | 0.00 | 58 | 1012.1 |
| 20260509013318 | 52 | 325 | 0.0 | 2.6 | 0.00 | 0.00 | 0.00 | 56 | 1012.1 |
| 20260509011814 | 53 | 341 | 1.7 | 4.3 | 0.00 | 0.00 | 0.00 | 54 | 1012.0 |
| 20260509010312 | 53 | 6 | 0.0 | 7.0 | 0.00 | 0.00 | 0.00 | 51 | 1011.5 |
| 20260509004807 | 53 | 325 | 0.9 | 3.5 | 0.00 | 0.00 | 0.00 | 52 | 1011.3 |
| 20260509003306 | 54 | 343 | 2.6 | 6.1 | 0.00 | 0.00 | 0.00 | 50 | 1011.1 |
| 20260509001803 | 54 | 54 | 0.0 | 3.5 | 0.00 | 0.00 | 0.00 | 51 | 1010.7 |
| 20260509000300 | 55 | 288 | 2.6 | 10.4 | 0.00 | 0.00 | 0.00 | 48 | 1010.3 |
| 20260508234756 | 55 | 308 | 3.5 | 4.3 | 0.00 | 0.00 | 0.00 | 48 | 1009.9 |
| 20260508233256 | 56 | 304 | 4.3 | 12.2 | 0.00 | 0.00 | 0.00 | 46 | 1009.8 |
| 20260508231753 | 58 | 331 | 4.3 | 9.6 | 0.00 | 0.00 | 0.00 | 47 | 1009.6 |
| 20260508230254 | 59 | 321 | 2.6 | 6.1 | 0.00 | 0.00 | 0.00 | 47 | 1009.5 |
| 20260508224751 | 60 | 324 | 2.6 | 4.3 | 0.00 | 0.00 | 0.00 | 46 | 1009.3 |
| 20260508223249 | 59 | 345 | 0.9 | 13.0 | 0.00 | 0.00 | 0.00 | 46 | 1009.4 |
| 20260508221745 | 60 | 346 | 6.1 | 8.7 | 0.00 | 0.00 | 0.00 | 46 | 1009.3 |
| 20260508220246 | 60 | 353 | 5.2 | 13.0 | 0.00 | 0.00 | 0.00 | 45 | 1009.3 |
| 20260508214742 | 61 | 343 | 3.5 | 10.4 | 0.00 | 0.00 | 0.00 | 45 | 1009.2 |
| 20260508213238 | 60 | 0 | 0.9 | 11.3 | 0.00 | 0.00 | 0.00 | 45 | 1009.0 |
| 20260508211738 | 59 | 351 | 5.2 | 13.0 | 0.00 | 0.00 | 0.00 | 47 | 1009.2 |
| 20260508210235 | 60 | 290 | 3.5 | 11.3 | 0.00 | 0.00 | 0.00 | 47 | 1009.0 |
| 20260508204730 | 60 | 349 | 6.1 | 14.8 | 0.00 | 0.00 | 0.00 | 47 | 1008.9 |
| 20260508203225 | 59 | 346 | 1.7 | 6.1 | 0.00 | 0.00 | 0.00 | 52 | 1008.8 |
| 20260508201721 | 59 | 240 | 4.3 | 8.7 | 0.00 | 0.00 | 0.00 | 51 | 1008.7 |
| 20260508200216 | 59 | 332 | 3.5 | 13.0 | 0.00 | 0.00 | 0.00 | 51 | 1008.7 |
| 20260508194712 | 55 | 254 | 7.8 | 17.4 | 0.00 | 0.00 | 0.00 | 56 | 1009.0 |
| 20260508193208 | 57 | 329 | 8.7 | 8.7 | 0.00 | 0.00 | 0.00 | 50 | 1008.7 |
| 20260508191705 | 58 | 253 | 7.0 | 13.0 | 0.00 | 0.00 | 0.00 | 47 | 1008.4 |
| 20260508190200 | 59 | 335 | 7.0 | 22.6 | 0.00 | 0.00 | 0.00 | 41 | 1008.1 |
| 20260508184658 | 59 | 317 | 3.5 | 8.7 | 0.00 | 0.00 | 0.00 | 49 | 1007.9 |
| 20260508183153 | 60 | 194 | 2.6 | 9.6 | 0.00 | 0.00 | 0.00 | 44 | 1008.0 |
| 20260508181653 | 62 | 156 | 1.7 | 3.5 | 0.00 | 0.00 | 0.00 | 39 | 1008.1 |
| 20260508180150 | 62 | 350 | 1.7 | 9.6 | 0.00 | 0.00 | 0.00 | 36 | 1007.8 |
| 20260508174647 | 60 | 119 | 2.6 | 5.2 | 0.00 | 0.00 | 0.00 | 49 | 1008.3 |
| 20260508173142 | 58 | 239 | 4.3 | 6.1 | 0.00 | 0.00 | 0.00 | 51 | 1008.4 |
| 20260508171639 | 62 | 186 | 2.6 | 3.5 | 0.00 | 0.00 | 0.00 | 43 | 1008.5 |
| 20260508170136 | 61 | 277 | 0.9 | 2.6 | 0.00 | 0.00 | 0.00 | 43 | 1008.4 |
| 20260508164632 | 61 | 315 | 2.6 | 6.1 | 0.00 | 0.00 | 0.00 | 43 | 1008.6 |
| 20260508163129 | 62 | 270 | 1.7 | 8.7 | 0.00 | 0.00 | 0.00 | 40 | 1008.7 |
| 20260508161625 | 61 | 318 | 6.1 | 12.2 | 0.00 | 0.00 | 0.00 | 40 | 1008.7 |
| 20260508160124 | 60 | 314 | 3.5 | 7.0 | 0.00 | 0.00 | 0.00 | 41 | 1009.0 |
| 20260508154621 | 60 | 221 | 3.5 | 7.0 | 0.00 | 0.00 | 0.00 | 39 | 1009.3 |
| 20260508153117 | 58 | 328 | 8.7 | 11.3 | 0.00 | 0.00 | 0.00 | 43 | 1009.5 |
| 20260508151612 | 59 | 223 | 4.3 | 11.3 | 0.00 | 0.00 | 0.00 | 40 | 1009.3 |
| 20260508150108 | 59 | 219 | 5.2 | 10.4 | 0.00 | 0.00 | 0.00 | 41 | 1009.5 |
| 20260508144605 | 57 | 299 | 1.7 | 11.3 | 0.00 | 0.00 | 0.00 | 41 | 1009.6 |
| 20260508143102 | 57 | 318 | 2.6 | 15.6 | 0.00 | 0.00 | 0.00 | 42 | 1009.5 |
| 20260508141558 | 56 | 305 | 3.5 | 12.2 | 0.00 | 0.00 | 0.00 | 42 | 1009.5 |
| 20260508140055 | 56 | 338 | 2.6 | 7.0 | 0.00 | 0.00 | 0.00 | 44 | 1009.6 |